[[{"header":{"parameterUnit":"m.s-1","parameterCategory":1,"la1":30.2991,"la2":30.254,"lo1":-89.0895,"lo2":-89.0444,"dy":0.0017,"dx":0.0017,"nx":28,"ny":28,"refTime":"2024-05-28T03:00:00:Z","depth":0,"parameterNumber":2,"parameterNumberName":"U-component_of_WINDS"},"data":[0,0,0,0,0,0,0,0,0,0,0,0,0,0,0,0,0,0,0,0,0,0,0,0,0,0,0,0,0,0,0,0,0,0,0,0,0,0,0,0,0,0,0,0,0,0,0,0,0,0,0,0,0,0,0,0,0,0,1.2427,1.2428,0,1.2522,1.2523,1.2524,1.2515,1.2514,1.2512,1.2511,1.2609,1.2613,1.2617,0,0,0,0,0,0,0,0,0,0,0,0,0,1.224,1.2243,1.2427,1.2428,1.2429,1.2521,1.2523,1.2524,1.2516,1.2514,1.2512,1.251,1.2608,1.2613,1.2617,0,0,0,0,0,0,0,0,0,0,0,0,0,1.2327,1.2245,1.2427,1.2436,1.2438,1.2521,1.2523,1.2524,1.2516,1.2514,1.2512,1.251,1.2606,1.2612,1.2618,1.2698,0,0,1.2636,1.2639,0,0,0,0,0,0,0,0,1.2322,1.2333,1.2434,1.2436,1.2438,1.2504,1.2493,1.2583,1.2517,1.2486,1.2511,1.2509,1.2576,1.2585,1.2607,1.2703,1.2707,1.2637,1.264,1.2643,1.2645,0,0,0,0,0,0,0,1.2316,1.2329,1.2464,1.2435,1.2438,1.2436,1.2446,1.251,1.2542,1.2489,1.2489,1.25,1.2577,1.2601,1.2609,1.2708,1.2637,1.2642,1.2646,1.2648,1.2875,1.2877,0,0,0,0,0,0,1.2307,1.2324,1.2461,1.2467,1.2373,1.2441,1.2452,1.2485,1.2542,1.2548,1.2502,1.2499,1.2592,1.2602,1.2613,1.2711,1.2643,1.2648,1.2652,1.2872,1.2875,1.2878,0,0,0,0,0,0,1.2303,1.232,1.2458,1.2396,1.2413,1.2447,1.2484,1.2488,1.2513,1.2551,1.2557,1.252,1.2591,1.2604,1.2677,1.2714,1.2651,1.2657,1.2869,1.2873,1.2876,1.2906,0,0,0,0,0,0,1.2298,1.2318,1.2349,1.2397,1.2417,1.252,1.2486,1.2492,1.2523,1.252,1.257,1.2577,1.259,1.2668,1.2683,1.2721,1.2661,1.2866,1.2871,1.2875,1.2902,1.2911,1.2918,0,0,0,0,0,1.2291,1.2354,1.2351,1.2367,1.2456,1.2522,1.2534,1.2548,1.2526,1.2557,1.2582,1.2575,1.2707,1.2676,1.2692,1.2732,1.2864,1.287,1.2875,1.2899,1.2909,1.2918,0,0,0,0,0,0,1.2311,1.236,1.2357,1.2437,1.2475,1.2521,1.2561,1.2558,1.2604,1.26,1.2615,1.2627,1.27,1.2723,1.2687,1.2813,1.2783,1.2792,1.2795,1.2805,1.2813,1.2806,1.2666,0,0,0,0,0,1.2324,1.2374,1.2415,1.2481,1.25,1.2527,1.2557,1.2564,1.2605,1.2621,1.2651,1.2691,1.2741,1.2774,1.2823,1.2905,1.2916,1.2941,1.2949,1.2955,1.2963,1.3008,1.302,1.2896,1.2896,1.2896,0,0,1.2353,1.2386,1.2417,1.2486,1.2516,1.2568,1.2541,1.2597,1.2635,1.263,1.27,1.2723,1.2769,1.2847,1.2882,1.2868,1.2999,1.2962,1.2967,1.2971,1.3015,1.3027,1.3037,1.29,1.2899,1.2898,0,0,1.2431,1.2461,1.252,1.2551,1.2597,1.2614,1.2628,1.2674,1.2689,1.2759,1.2757,1.2802,1.2889,1.2922,1.2949,1.3039,1.3035,1.3054,1.3095,1.3139,1.3149,1.3158,1.319,1.3202,1.3062,1.3062,1.3062,0,1.2461,1.2538,1.255,1.2606,1.2637,1.2634,1.2693,1.2723,1.2783,1.2804,1.2787,1.2895,1.2926,1.3011,1.3033,1.3056,1.3072,1.3049,1.3147,1.3155,1.3164,1.3195,1.3207,1.3064,1.3064,1.3064,1.3063,0,1.2572,1.2626,1.2668,1.2725,1.276,1.2818,1.2839,1.2873,1.2877,1.2896,1.2968,1.3004,1.306,1.308,1.3085,1.3167,1.3156,1.3143,1.3113,1.3178,1.3207,1.3219,1.3067,1.3066,1.3066,1.3065,0,0,1.2667,1.273,1.2745,1.2771,1.2821,1.2863,1.292,1.2974,1.3003,1.3044,1.3093,1.3166,1.3153,1.3185,1.3193,1.3232,1.3301,1.3213,1.3215,1.3229,1.3393,1.3403,1.3417,1.3297,1.33,1.3302,1.3389,0,1.2751,1.2852,1.2865,1.2955,1.3004,1.3001,1.3051,1.3087,1.3106,1.3151,1.3172,1.3223,1.3203,1.3222,1.326,1.3284,1.3334,1.3278,1.3344,1.3346,1.3333,1.3432,1.3444,1.3525,1.3401,1.3403,1.3404,0,1.2863,1.2907,1.3001,1.3044,1.3066,1.311,1.316,1.3203,1.3244,1.3255,1.329,1.3293,1.3352,1.3319,1.3401,1.3363,1.339,1.3406,1.341,1.3417,1.338,1.3443,1.3551,1.3563,1.3422,1.3421,1.342,0,1.2923,1.3006,1.3073,1.3095,1.3147,1.3178,1.3201,1.324,1.3271,1.3315,1.3336,1.3386,1.3414,1.3453,1.3469,1.3444,1.3551,1.3519,1.3562,1.3562,1.3586,1.3584,1.37,1.3602,1.3602,1.3602,1.3601,0,1.3016,1.3075,1.3101,1.3142,1.3207,1.322,1.3285,1.3306,1.3341,1.3387,1.3387,1.343,1.3449,1.3495,1.3508,1.3574,1.3587,1.3598,1.3601,1.3598,1.3597,1.3617,1.3612,1.3605,1.3604,1.3604,1.3603,0,1.3095,1.3115,1.3188,1.3231,1.3243,1.3289,1.3325,1.3366,1.3383,1.3441,1.3456,1.3484,1.3538,1.3558,1.3625,1.3633,1.371,1.3708,1.3696,1.3697,1.374,1.3736,1.3873,1.3892,1.3781,1.3782,1.3783,0,1.3154,1.3199,1.3245,1.3276,1.33,1.3349,1.3381,1.3395,1.3428,1.3478,1.3512,1.3566,1.361,1.3697,1.3723,1.3774,1.3774,1.3818,1.3781,1.3777,1.3775,1.3773,1.3777,1.3826,1.3827,1.3828,1.3828,0,1.3256,1.3263,1.3309,1.3358,1.3396,1.3435,1.3473,1.3498,1.3518,1.3556,1.3611,1.3645,1.3711,1.3765,1.3817,1.3841,1.3839,1.384,1.3852,1.3851,1.3842,1.3848,1.3716,1.3837,1.3836,1.3835,1.3835,1.3835,1.3327,1.3367,1.3406,1.3456,1.3486,1.3522,1.3562,1.3584,1.363,1.3685,1.3691,1.375,1.379,1.3858,1.3885,1.3931,1.3919,1.3938,1.3943,1.3947,1.3951,1.3834,1.3941,1.3941,1.394,1.394,1.394,0,1.343,1.3455,1.3501,1.3554,1.3594,1.3587,1.3628,1.3662,1.3714,1.3751,1.3794,1.3857,1.3908,1.3939,1.399,1.4022,1.4022,1.4035,1.4034,1.4039,1.3958,1.3942,1.4034,1.4034,1.4034,1.4034,1.4034,1.4034,1.3488,1.3555,1.3566,1.3647,1.3671,1.3729,1.3753,1.3786,1.3815,1.3886,1.3928,1.3947,1.3981,1.4035,1.4083,1.409,1.411,1.4124,1.413,1.4055,1.4045,1.4036,1.4021,1.4128,1.4128,1.4208,1.4208,1.4209]},{"header":{"parameterUnit":"m.s-1","parameterCategory":1,"la1":30.2991,"la2":30.254,"lo1":-89.0895,"lo2":-89.0444,"dy":0.0017,"dx":0.0017,"nx":28,"ny":28,"refTime":"2024-05-28T03:00:00:Z","depth":0,"parameterNumber":3,"parameterNumberName":"V-component_of_WINDS"},"data":[0,0,0,0,0,0,0,0,0,0,0,0,0,0,0,0,0,0,0,0,0,0,0,0,0,0,0,0,0,0,0,0,0,0,0,0,0,0,0,0,0,0,0,0,0,0,0,0,0,0,0,0,0,0,0,0,0,0,0.5526,0.5526,0,0.5501,0.5501,0.5501,0.5466,0.5465,0.5464,0.5464,0.5438,0.5438,0.5438,0,0,0,0,0,0,0,0,0,0,0,0,0,0.5542,0.5542,0.5526,0.5526,0.5526,0.5501,0.5501,0.5501,0.5466,0.5465,0.5464,0.5463,0.5438,0.5438,0.5438,0,0,0,0,0,0,0,0,0,0,0,0,0,0.5528,0.5542,0.5526,0.5505,0.5503,0.5502,0.5501,0.5501,0.5466,0.5465,0.5464,0.5463,0.5439,0.5438,0.5438,0.5456,0,0,0.5438,0.5438,0,0,0,0,0,0,0,0,0.5529,0.5528,0.5508,0.5507,0.5504,0.5486,0.5497,0.5486,0.5466,0.548,0.5464,0.5463,0.5455,0.5453,0.5451,0.5454,0.5453,0.5438,0.5438,0.5438,0.5438,0,0,0,0,0,0,0,0.553,0.5528,0.5516,0.5508,0.5506,0.5497,0.5494,0.5495,0.5473,0.5479,0.5476,0.5474,0.5453,0.5451,0.545,0.5453,0.5438,0.5438,0.5437,0.5437,0.5469,0.547,0,0,0,0,0,0,0.5534,0.553,0.5517,0.5516,0.5515,0.5497,0.5494,0.5492,0.5473,0.5469,0.5474,0.5472,0.5452,0.545,0.5449,0.5468,0.5438,0.5437,0.5437,0.5468,0.5469,0.547,0,0,0,0,0,0,0.5535,0.5533,0.5518,0.5522,0.5519,0.5498,0.5497,0.5492,0.549,0.5469,0.5465,0.5476,0.5451,0.5449,0.5454,0.5466,0.5437,0.5437,0.5467,0.5468,0.5469,0.5506,0,0,0,0,0,0,0.5535,0.5534,0.554,0.5522,0.5519,0.5524,0.5497,0.5493,0.549,0.5486,0.547,0.5466,0.545,0.5454,0.5454,0.5466,0.5437,0.5466,0.5467,0.5469,0.5503,0.5508,0.5512,0,0,0,0,0,0.5536,0.5552,0.5541,0.554,0.5527,0.5525,0.5523,0.5504,0.5491,0.5497,0.5484,0.5467,0.5465,0.5455,0.5454,0.5466,0.5465,0.5467,0.5469,0.5501,0.5507,0.5512,0,0,0,0,0,0,0.5572,0.5549,0.5537,0.5547,0.5538,0.5519,0.5527,0.5511,0.5506,0.5503,0.548,0.5476,0.5484,0.5475,0.5465,0.5481,0.5462,0.5464,0.5487,0.5493,0.5497,0.5499,0.5437,0,0,0,0,0,0.5581,0.5582,0.5561,0.5573,0.5569,0.5548,0.5547,0.5533,0.5523,0.5519,0.5506,0.5497,0.5494,0.5492,0.5489,0.5501,0.5497,0.5509,0.5513,0.5517,0.552,0.5525,0.553,0.5477,0.5477,0.5477,0,0,0.5601,0.5588,0.559,0.5579,0.5571,0.5572,0.5546,0.5548,0.5548,0.5519,0.5523,0.5513,0.5501,0.551,0.5513,0.5503,0.5533,0.552,0.5523,0.5523,0.5528,0.5533,0.5538,0.5478,0.5478,0.5478,0,0,0.5636,0.5626,0.5634,0.5626,0.5613,0.56,0.5602,0.5584,0.5577,0.558,0.5558,0.5558,0.5554,0.5546,0.5542,0.5573,0.5557,0.5572,0.5596,0.5602,0.5606,0.5609,0.5621,0.5625,0.5574,0.5574,0.5574,0,0.5661,0.5662,0.5641,0.5644,0.564,0.5613,0.5621,0.5614,0.5601,0.5599,0.5587,0.5581,0.5571,0.5578,0.5585,0.5582,0.5584,0.5574,0.5607,0.561,0.5613,0.5624,0.5628,0.5576,0.5576,0.5576,0.5575,0,0.5694,0.5694,0.5702,0.569,0.5687,0.5693,0.5672,0.5671,0.5657,0.5644,0.5648,0.5635,0.5628,0.5628,0.5614,0.5632,0.5626,0.5611,0.5591,0.5621,0.563,0.5634,0.5579,0.5578,0.5578,0.5577,0,0,0.5753,0.5728,0.5731,0.5725,0.5709,0.5709,0.5712,0.5705,0.5705,0.5696,0.5699,0.5696,0.5681,0.5676,0.5661,0.5666,0.5692,0.565,0.565,0.5659,0.5711,0.5723,0.5728,0.568,0.5681,0.5682,0.5712,0,0.5785,0.5791,0.5772,0.5783,0.5783,0.5757,0.576,0.575,0.5738,0.5736,0.5722,0.572,0.5701,0.5698,0.5702,0.5688,0.5702,0.5685,0.5683,0.5683,0.5688,0.5733,0.5746,0.5775,0.5715,0.5716,0.5716,0,0.5825,0.5818,0.5829,0.5811,0.581,0.5814,0.5806,0.5804,0.5792,0.5782,0.5776,0.5759,0.5761,0.5741,0.5744,0.5733,0.573,0.5723,0.5724,0.5723,0.5702,0.5734,0.5784,0.5789,0.5722,0.5721,0.5721,0,0.5867,0.5861,0.5866,0.5862,0.5841,0.5844,0.5835,0.5822,0.5819,0.5811,0.5809,0.5802,0.5798,0.5793,0.5773,0.5761,0.5778,0.5757,0.5771,0.5771,0.5776,0.5777,0.5827,0.5774,0.5773,0.5773,0.5773,0,0.5906,0.5914,0.5885,0.5889,0.5896,0.5873,0.5881,0.587,0.5858,0.5859,0.5836,0.5837,0.5811,0.5809,0.5793,0.5798,0.5796,0.5788,0.5785,0.5791,0.5792,0.579,0.5788,0.5775,0.5774,0.5774,0.5774,0,0.5955,0.5936,0.5941,0.592,0.5915,0.5922,0.5904,0.5907,0.5892,0.5894,0.5892,0.587,0.5867,0.5846,0.5838,0.5828,0.5838,0.5829,0.5842,0.584,0.5855,0.5854,0.5906,0.5912,0.5854,0.5855,0.5855,0,0.5982,0.5987,0.5967,0.5966,0.5959,0.5957,0.5954,0.5931,0.5928,0.5914,0.5918,0.5912,0.5906,0.5901,0.5884,0.5878,0.5869,0.5888,0.5868,0.5874,0.587,0.587,0.5871,0.5893,0.5893,0.5894,0.5894,0,0.6031,0.6021,0.6018,0.601,0.6007,0.6,0.5991,0.5991,0.5966,0.5964,0.596,0.5955,0.5946,0.5941,0.5931,0.5921,0.5904,0.59,0.5903,0.5911,0.5918,0.5915,0.5854,0.59,0.5899,0.5899,0.5899,0.5898,0.607,0.6074,0.606,0.6057,0.6048,0.604,0.6041,0.6027,0.6023,0.6014,0.6001,0.5998,0.5985,0.597,0.5962,0.5959,0.5949,0.5953,0.5954,0.5956,0.5959,0.5918,0.5957,0.5957,0.5957,0.5957,0.5957,0,0.6119,0.6109,0.6106,0.6094,0.6091,0.6074,0.6064,0.6062,0.6061,0.605,0.6044,0.6039,0.6034,0.6016,0.6008,0.6009,0.6001,0.6008,0.6008,0.6007,0.5969,0.5967,0.6015,0.6015,0.6015,0.6015,0.6015,0.6015,0.6144,0.6149,0.6138,0.6138,0.6127,0.6125,0.612,0.6113,0.6104,0.61,0.6095,0.6083,0.6069,0.606,0.6054,0.6049,0.6047,0.6057,0.6049,0.6015,0.6009,0.6004,0.6002,0.6057,0.6057,0.6087,0.6088,0.6088]}]]